Location: Bartshausen
(51.8454°N, 9.8167°E)
Time: 03:04:44
(UTC+00:00)

CENTAUR R/B - Pass Details

Date: 08 November 2025
Orbit: 633 x 1548 km, 63.4° (Epoch: 15 December)

Event Time Altitude Azimuth Distance (km) Brightness Sun altitude
Exits shadow 05:39:56 - 314° (NW) 3,588 4.9 -7.7°
Reaches altitude 10° 05:41:09 10° 314° (NW) 3,186 4.6 -7.5°
Maximum altitude 05:49:08 80° 43° (NE) 1,426 3.4 -6.4°
Drops below altitude 10° 05:58:28 10° 131° (SE) 3,693 6.9 -5.0°
Sets 06:01:37 0° 132° (SE) 4,701 7.6 -4.6°
